{"data":{"norad_id":58159,"intl_designator":"2023-166K","name":"STARLINK-30788","alt_names":[],"object_type":"PAYLOAD","status":"ACTIVE","operator":null,"country":"US","launch_date":"2023-10-29","launch_site_code":"AFWTR","launch_vehicle":null,"mission":null,"orbit_class":"UNKNOWN","rcs_meters":null,"size_class":null,"mass_kg":null,"dimensions":null,"purposes":["comms"],"wikipedia_slug":null,"has_3d_model":false,"image_url":null,"decayed_at":null,"tle_current":{"epoch":"2026-09-19T17:07:54.741792Z","epoch_age_seconds":208358,"freshness":"STALE","line1":"1 58159U 23166K   26262.71382803 -.00000984  00000+0 -19954-4 0  9990","line2":"2 58159  53.1603  37.0881 0001154  54.4017 305.7092 15.31710207162751","mean_motion":15.31710207,"eccentricity":0.0001154,"inclination_deg":53.1603,"raan_deg":37.0881,"arg_perigee_deg":54.4017,"mean_anomaly_deg":305.7092,"bstar":-1.9954e-5,"rev_number":16275,"period_min":94.01256147665,"perigee_km":469.91921196469,"apogee_km":471.49992575279,"semimajor_km":6848.8465688587,"source":"CELESTRAK","updated_at":"2026-09-21T09:00:33.797389Z"}}}